sat.trackr.live / text

‹ back to catalog

UNKNOWN

NORAD 87764

UNKNOWN UNKNOWN UNKNOWN

§ Identity

Operator
Country
Launch date
Launch site
Launch vehicle
Mass (kg)
RCS (m²)

External: N2YO · Heavens-Above

§ Orbital elements

Epoch: 2026-09-18T00:15:54.702720Z

Period
100.06 min
Inclination
65.6688°
Eccentricity
0.0364970
Mean motion
14.39090360 rev/d
Perigee alt
500.9 km
Apogee alt
1,022.1 km
Semi-major
7,139.6 km
B*
4.8557e-4
RAAN
110.6206°
Arg perigee
293.4727°
Mean anomaly
219.3139°
Rev number
65,925

§ Raw data

UNKNOWN1 87764U          26261.01104980  .00003171  00000+0  48557-3 0  99952 87764  65.6688 110.6206 0364970 293.4727 219.3139 14.39090360659252

JSON: /api/v1/satellites/87764 · /tle

For live sub-satellite position, see the globe view (requires WebGL).

§ Visibility from observer

Set your observer location to see the next 7 days of passes ≥ 10°. The values pass through the URL so the page stays shareable.

No JS? Fill the form by hand. The geolocation button needs JavaScript.